This is the latest recevied weather packets stored in our database for station/object N9EA. If no packets are shown the sender has not sent any weather packets the latest 10 day(s).
| Time | Temp. | Humidity | Pressure | Rain* | Wind** | Luminosity | Snow |
|---|---|---|---|---|---|---|---|
| 1777426356 | 15° C | 52% | 1013.1 hPa | 0 mm | - | 0 W/m² | - |
| 1777426052 | 15° C | 52% | 1013 hPa | 0 mm | - | 0 W/m² | - |
| 1777425747 | 15° C | 52% | 1012.9 hPa | 0 mm | - | 0 W/m² | - |
| 1777425442 | 15° C | 52% | 1012.8 hPa | 0 mm | - | 0 W/m² | - |
| 1777425138 | 15° C | 52% | 1012.9 hPa | 0 mm | - | 0 W/m² | - |
| 1777424835 | 15° C | 52% | 1012.7 hPa | 0 mm | - | 0 W/m² | - |
| 1777424530 | 15.56° C | 52% | 1012.7 hPa | 0 mm | - | 1 W/m² | - |
| 1777424226 | 15.56° C | 52% | 1012.8 hPa | 0 mm | - | 1 W/m² | - |
| 1777423923 | 15.56° C | 52% | 1012.9 hPa | 0 mm | - | 2 W/m² | - |
| 1777423619 | 15.56° C | 52% | 1012.7 hPa | 0 mm | - | 3 W/m² | - |
| 1777423314 | 15.56° C | 52% | 1012.9 hPa | 0 mm | - | 4 W/m² | - |
| 1777423010 | 15.56° C | 50% | 1012.8 hPa | 0 mm | - | 6 W/m² | - |
| 1777422705 | 15.56° C | 51% | 1012.7 hPa | 0 mm | - | 9 W/m² | - |
| 1777422401 | 16.11° C | 49% | 1012.6 hPa | 0 mm | - | 13 W/m² | - |
| 1777422096 | 16.11° C | 49% | 1012.5 hPa | 0 mm | - | 18 W/m² | - |
| 1777421795 | 16.11° C | 48% | 1012.4 hPa | 0 mm | - | 22 W/m² | - |
| 1777421491 | 16.11° C | 46% | 1012.6 hPa | 0 mm | - | 25 W/m² | - |
| 1777421187 | 16.11° C | 47% | 1012.5 hPa | 0 mm | - | 27 W/m² | - |
| 1777420884 | 16.11° C | 50% | 1012.6 hPa | 0 mm | - | 30 W/m² | - |
| 1777420580 | 16.67° C | 48% | 1012.7 hPa | 0 mm | - | 35 W/m² | - |
| 1777420276 | 16.67° C | 49% | 1012.7 hPa | 0 mm | - | 41 W/m² | - |
| 1777419971 | 16.67° C | 47% | 1012.8 hPa | 0 mm | - | 43 W/m² | - |
| 1777419669 | 17.22° C | 49% | 1012.7 hPa | 0 mm | - | 56 W/m² | - |
| 1777419367 | 17.22° C | 49% | 1012.7 hPa | 0 mm | - | 70 W/m² | - |
| 1777419066 | 17.22° C | 50% | 1012.8 hPa | 0 mm | - | 98 W/m² | - |
* Rain latest hour (hover to see other rain measurements)
** Current wind speed in m/s (hover to see current wind gust speed)